Skip Page Navigation
NASA JPL Caltech
NASA Logo - Jet Propulsion Laboratory + View the NASA Portal
+ Center for Near-Earth Object Studies
JPL Home Earth Solar System Stars & Galaxies Technology
JPL Solar System Dynamics
BODIES ORBITS EPHEMERIDES TOOLS PHYSICAL DATA DISCOVERY FAQ SITE MAP
JPL Small-Body Database Browser
Search: [ help ]  
22193 (2712 P-L)
Classification: Main-belt Asteroid          SPK-ID: 2022193
Ephemeris | Orbit Diagram | Orbital Elements | Mission Design | Physical Parameters | Discovery Circumstances ]

[ show orbit diagram ]
Orbital Elements at Epoch 2459200.5 (2020-Dec-17.0) TDB
Reference: JPL 25 (heliocentric ecliptic J2000)
 Element Value Uncertainty (1-sigma)   Units 
e .0461929319622761 3.3073e-08  
a 2.650211549701297 1.1386e-08 au
q 2.527790507900307 8.4676e-08 au
i 2.971935922764615 3.4844e-06 deg
node 112.3225970510703 7.9491e-05 deg
peri 134.601411100965 9.7027e-05 deg
M 100.0709984041415 5.3891e-05 deg
tp 2458762.448701214900
(2019-Oct-05.94870121)
0.00023669 TDB
period 1575.865836031368
4.31
1.0156e-05
2.781e-08
d
yr
n .2284458434016296 1.4722e-09 deg/d
Q 2.772632591502288 1.1912e-08 au
  Orbit Determination Parameters
   # obs. used (total)      1194  
   data-arc span      21991 days (60.21 yr)  
   first obs. used      1960-09-24  
   last obs. used      2020-12-09  
   planetary ephem.      DE441  
   SB-pert. ephem.      SB441-N16  
   condition code      0  
   norm. resid. RMS      .52727  
   source      ORB  
   producer      Otto Matic  
   solution date      2021-Apr-13 04:02:20  

Additional Information
 Earth MOID = 1.51333 au 
 Jupiter MOID = 2.22006 au 
 T_jup = 3.387 
[ hide covariance matrix ]
Orbital Elements at Epoch 2457556.5 (2016-Jun-17.0) TDB
Reference: JPL 25 (heliocentric ecliptic J2000)
 Element Value Uncertainty (1-sigma)   Units 
e .0448012931100336 3.2829e-08  
q 2.532384685737358 8.3903e-08 au
tp 2457191.477576741461
(2015-Jun-17.97757674)
0.00024878 TDB
node 112.3427448003201 7.9551e-05 deg
peri 136.0000990255403 9.8227e-05 deg
i 2.970572800030851 3.4815e-06 deg
  Orbit Determination Parameters
   # obs. used (total)      1194  
   data-arc span      21991 days (60.21 yr)  
   first obs. used      1960-09-24  
   last obs. used      2020-12-09  
   planetary ephem.      DE441  
   SB-pert. ephem.      SB441-N16  
   condition code      0  
   norm. resid. RMS      .52727  
   source      ORB  
   producer      Otto Matic  
   solution date      2021-Apr-13 04:02:20  

Additional Information
 Jupiter MOID = 2.22006 au 
 T_jup = 3.387 
Orbit Covariance (6×6)
  e q tp node peri i
e 1.077730818616347E-15 -2.733748477128525E-15 -2.769040800101246E-12 -1.286697301530476E-14 -6.450207287375849E-13 -8.096931098009478E-16
q -2.733748477128525E-15 7.039641803037963E-15 6.408495132750713E-12 3.08764079622189E-14 1.498449452170955E-12 2.106083529188867E-15
tp -2.769040800101246E-12 6.408495132750713E-12 6.189064726915775E-8 1.628980615981054E-10 1.43571407539382E-8 3.228321473571603E-12
node -1.286697301530476E-14 3.08764079622189E-14 1.628980615981054E-10 6.328353540920128E-9 -6.281465597773637E-9 5.222780929154761E-11
peri -6.450207287375849E-13 1.498449452170955E-12 1.43571407539382E-8 -6.281465597773637E-9 9.648458079579617E-9 -5.140501340037711E-11
i -8.096931098009478E-16 2.106083529188867E-15 3.228321473571603E-12 5.222780929154761E-11 -5.140501340037711E-11 1.212050201607568E-11

Ephemeris | Orbit Diagram | Orbital Elements | Mission Design | Physical Parameters | Discovery Circumstances ]

Physical Parameter Table
Parameter Symbol Value Units Sigma Reference Notes
absolute magnitude H 14.85   n/a E2021B10  
diameter diameter 2.682 km 0.585 urn:nasa:pds:neowise_diameters_albedos::2.0[mainbelt] (http://adsabs.harvard.edu/abs/2011ApJ...741...68M)  
geometric albedo albedo 0.355   0.108 urn:nasa:pds:neowise_diameters_albedos::2.0[mainbelt] (http://adsabs.harvard.edu/abs/2011ApJ...741...68M)  

22193 (2712 P-L)          Discovered 1960-Sep-24 by van Houten, C. J., van Houten-Groeneveld, I., Gehrels, T. at Palomar
Reference: 20010208/Numbers.arcLast Updated: 2004-04-19

Alternate Designations
 2712 P-L = 1993 FD31 
Ephemeris | Orbit Diagram | Orbital Elements | Mission Design | Physical Parameters | Discovery Circumstances ]
ABOUT SSD CREDITS/AWARDS PRIVACY/COPYRIGHT GLOSSARY LINKS
FirstGov 2021-May-09 08:55 UT
(server date/time)  
NASA Home Page
Site Manager:   Ryan S. Park
Webmaster  Alan B. Chamberlin